目前分類:手錶、流行錶快速到貨-SEIKO 快速到貨 (89)

瀏覽方式: 標題列表 簡短摘要
發表時間 文章標題 人氣 留言
2013-03-25 ALBA 超級戰艦大錶徑雙時區腕錶-IP黑/46mm-開箱 (0) (0)
2013-03-25 SEIKO 軍用5號自動機械錶-軍綠/38mm大特價 (1) (0)
2013-03-24 SEIKO 雅爵金品5號自動機械腕錶-全IP金/37mm促銷 (0) (0)
2013-03-24 SEIKO 盾牌5號24石世界時間GMT機械錶-全IP黑/42mm-開箱 (0) (0)
2013-03-24 SEIKO 雅痞風5號23石自動機械錶-黑x金時標/42mm特賣會 (1) (0)
2013-03-23 SEIKO 雅痞風5號23石自動機械錶-黑x銀時標/42mm-價格 (0) (0)
2013-03-23 ALBA 新雅爵全金系列紳士男錶-黑x金/38mm特賣會 (0) (0)
2013-03-23 SEIKO 優質時尚風皮帶腕錶-金框/39mm-網友評價 (0) (0)
2013-03-23 ALBA 金典玩家時尚紳士腕錶-黑x金/38mm-網友評價 (0) (0)
2013-03-22 ALBA 星空美少女晶鑽3眼計時腕錶-白/36mm-推薦 (0) (0)
2013-03-21 SEIKO 紳士金年代5號自動機械腕錶-黑面/37mm促銷 (23) (0)
2013-03-21 ALBA 美少女晶鑽系列計時腕錶-白x金框/37mm-推薦 (1) (0)
2013-03-21 SEIKO 時尚新爵IP金5號自動機械腕錶-黑/38mm-價格 (0) (0)
2013-03-20 ALBA 【鈦】時尚達人經典腕錶-白/40mm大特價 (1) (0)
2013-03-20 SEIKO 爵士星期逆跳多環腕錶-白/40mm大特價 (2) (0)
2013-03-20 SEIKO 雅仕金風尚5號自動機械對錶-金x白促銷活動 (0) (0)
2013-03-20 SEIKO 5號盾牌經典大刻度機械錶-黑/37mm大特價 (0) (0)
2013-03-20 SEIKO 城市菁英經典男錶-炫藍/39mm特賣會 (0) (0)
2013-03-19 SEIKO 氣質女王時尚晶鑽腕錶-黑/26mm-推薦 (28) (0)
2013-03-19 SEIKO 航空三眼鬧鈴計時碼錶-白/42mm促銷活動 (0) (0)
2013-03-19 SEIKO 魅力銀光錶盤自動機械腕錶-35mm-網友評價 (0) (0)
2013-03-19 SEIKO 名流羅馬風盾牌5號機械男錶-黑面/37mm-開箱 (0) (0)
2013-03-18 SEIKO 時尚黑爵士計時運動腕錶-黑/43mm熱門款式 (0) (0)
2013-03-18 ALBA 動感新視界三眼計時男錶-金框黑/42mm大特價 (1) (0)
2013-03-17 SEIKO 氣質女王時尚晶鑽腕錶-銀x雙色版/26mm熱門款式 (2) (0)
2013-03-17 SEIKO 時尚新爵IP金5號自動機械腕錶-金/38mm熱門款式 (0) (0)
2013-03-16 ALBA 炫采時尚系列淑女腕錶-黑/21mm-推薦 (0) (0)
2013-03-15 ALBA 名流紳士風3環計時腕錶-白/43mm-價格 (0) (0)
2013-03-15 SEIKO 優質典雅風時尚女錶-白x金框/28mm-網友評價 (3) (0)
2013-03-14 ALBA 美少女晶鑽系列計時腕錶-白/37mm熱門款式 (24) (0)
2013-03-14 ALBA 超級戰艦大錶徑雙時區腕錶-藍/46mm-推薦 (27) (0)
2013-03-14 ALBA 魅麗時光大錶徑晶鑽女錶-黑/36mm特賣會 (22) (0)
2013-03-14 SEIKO 品味紳士盾牌5號自動機械錶-白/37mm-網友評價 (0) (0)
2013-03-14 ALBA 都會紳士大錶徑3環計時腕錶-黑/43mm特賣會 (0) (0)
2013-03-14 SEIKO 藍調格紋自動機械錶-白/35mm-開箱 (0) (0)
2013-03-14 ALBA 法式經典大錶徑男腕錶-銀白/42mm促銷 (1) (0)
2013-03-14 SEIKO 優美金緻典藏時尚女錶-IP金/25mm超級便宜 (0) (0)
2013-03-13 ALBA 雅爵經典品味時尚對錶-銀白特賣會 (2) (0)
2013-03-13 SEIKO KINETIC 皇室品味經典人動電能腕錶-黑/40mm熱門款式 (26) (0)
2013-03-13 ALBA 時尚紐約風晶鑽女錶-白x金時標/20mm促銷 (0) (0)
2013-03-13 ALBA 清秀佳人時尚皮帶女錶-白/28mm熱門款式 (1) (0)
2013-03-13 SEIKO 軍用5號自動機械腕錶-黑面/38mm-價格 (0) (0)
2013-03-13 SEIKO 競速時尚三環計時碼錶-黑/42mm-推薦 (0) (0)
2013-03-11 ALBA 極簡都會風雙顯腕錶-灰墨綠/42mm-開箱 (2) (0)
2013-03-10 ALBA 超級戰艦大錶徑雙時區腕錶-咖啡/46mm大特價 (2) (0)
2013-03-10 SEIKO Presage 名流時尚藍寶石鏡面23石機械錶-黑/39mm-網友評價 (0) (0)
2013-03-09 ALBA 超完美螢光錶面時尚腕錶-全IP金/38mm-價格 (1) (0)
2013-03-09 SEIKO 超能戰警經典24石自動機械錶-全IP黑/44mm促銷 (1) (0)
2013-03-08 SEIKO 雅痞風5號23石自動機械錶-全IP黑/42mm超級便宜 (2) (0)
2013-03-08 SEIKO 極速先鋒盾牌5號24石自動機械錶-黑/41mm促銷活動 (0) (0)
1 2
找更多相關文章與討論